Time,TemperatureF,DewpointF,PressureIn,WindDirection,WindDirectionDegrees,WindSpeedMPH,WindSpeedGustMPH,Humidity,HourlyPrecipIn,Conditions,Clouds,dailyrainin,SolarRadiationWatts/m^2,SoftwareType,DateUTC
2013-01-17 00:04:00,33.0,7.0,30.51,SW,221,0.0,0.0,33,0.00,,,0.00,0,weatherlink.com 1.10,2013-01-17 07:04:00,
2013-01-17 00:19:00,32.4,7.0,30.51,SW,221,0.0,0.0,34,0.00,,,0.00,0,weatherlink.com 1.10,2013-01-17 07:19:00,
2013-01-17 00:34:00,31.9,7.0,30.51,SW,221,0.0,1.0,35,0.00,,,0.00,0,weatherlink.com 1.10,2013-01-17 07:34:00,
2013-01-17 00:49:00,31.2,6.0,30.51,SW,221,0.0,1.0,35,0.00,,,0.00,0,weatherlink.com 1.10,2013-01-17 07:49:00,
2013-01-17 01:04:00,31.0,7.0,30.52,SW,221,0.0,0.0,36,0.00,,,0.00,0,weatherlink.com 1.10,2013-01-17 08:04:00,
2013-01-17 01:19:00,30.8,8.0,30.51,SW,221,0.0,0.0,38,0.00,,,0.00,0,weatherlink.com 1.10,2013-01-17 08:19:00,
2013-01-17 01:34:00,30.7,8.0,30.52,SW,221,0.0,0.0,38,0.00,,,0.00,0,weatherlink.com 1.10,2013-01-17 08:34:00,
2013-01-17 01:49:00,30.7,8.0,30.52,SW,221,0.0,0.0,38,0.00,,,0.00,0,weatherlink.com 1.10,2013-01-17 08:49:00,
2013-01-17 02:04:00,30.6,8.0,30.52,SW,221,0.0,1.0,39,0.00,,,0.00,0,weatherlink.com 1.10,2013-01-17 09:04:00,
2013-01-17 02:19:00,30.3,9.0,30.52,SW,221,0.0,1.0,40,0.00,,,0.00,0,weatherlink.com 1.10,2013-01-17 09:19:00,
2013-01-17 02:34:00,30.3,9.0,30.52,SW,221,0.0,1.0,40,0.00,,,0.00,0,weatherlink.com 1.10,2013-01-17 09:34:00,
2013-01-17 02:49:00,30.5,8.0,30.52,SW,221,0.0,0.0,39,0.00,,,0.00,0,weatherlink.com 1.10,2013-01-17 09:49:00,
2013-01-17 03:05:00,29.8,9.0,30.53,SW,221,0.0,0.0,41,0.00,,,0.00,0,weatherlink.com 1.10,2013-01-17 10:05:00,
2013-01-17 03:20:00,29.3,8.0,30.52,SW,221,0.0,0.0,41,0.00,,,0.00,0,weatherlink.com 1.10,2013-01-17 10:20:00,
2013-01-17 03:35:00,29.0,8.0,30.53,SW,221,0.0,0.0,41,0.00,,,0.00,0,weatherlink.com 1.10,2013-01-17 10:35:00,
2013-01-17 03:50:00,29.0,8.0,30.52,SW,221,0.0,0.0,42,0.00,,,0.00,0,weatherlink.com 1.10,2013-01-17 10:50:00,
2013-01-17 04:05:00,28.9,9.0,30.52,SW,221,0.0,0.0,43,0.00,,,0.00,0,weatherlink.com 1.10,2013-01-17 11:05:00,
2013-01-17 04:20:00,28.7,9.0,30.52,SW,221,0.0,0.0,44,0.00,,,0.00,0,weatherlink.com 1.10,2013-01-17 11:20:00,
2013-01-17 04:35:00,28.5,9.0,30.52,SW,221,0.0,1.0,44,0.00,,,0.00,0,weatherlink.com 1.10,2013-01-17 11:35:00,
2013-01-17 04:50:00,27.9,7.0,30.52,SW,221,0.0,1.0,42,0.00,,,0.00,0,weatherlink.com 1.10,2013-01-17 11:50:00,
2013-01-17 05:05:00,27.4,7.0,30.53,SW,221,0.0,1.0,43,0.00,,,0.00,0,weatherlink.com 1.10,2013-01-17 12:05:00,
2013-01-17 05:20:00,26.7,7.0,30.53,SW,221,1.0,5.0,43,0.00,,,0.00,0,weatherlink.com 1.10,2013-01-17 12:20:00,
2013-01-17 05:35:00,26.7,7.0,30.52,SW,221,1.0,4.0,43,0.00,,,0.00,0,weatherlink.com 1.10,2013-01-17 12:35:00,
2013-01-17 05:50:00,26.5,7.0,30.52,SW,221,0.0,2.0,43,0.00,,,0.00,0,weatherlink.com 1.10,2013-01-17 12:50:00,
2013-01-17 06:05:00,26.3,6.0,30.53,SW,221,0.0,3.0,43,0.00,,,0.00,0,weatherlink.com 1.10,2013-01-17 13:05:00,
2013-01-17 06:20:00,25.9,7.0,30.53,SW,221,2.0,5.0,44,0.00,,,0.00,0,weatherlink.com 1.10,2013-01-17 13:20:00,
2013-01-17 06:35:00,25.7,6.0,30.54,SW,221,0.0,4.0,44,0.00,,,0.00,0,weatherlink.com 1.10,2013-01-17 13:35:00,
2013-01-17 06:50:00,26.5,7.0,30.54,SW,221,0.0,1.0,44,0.00,,,0.00,0,weatherlink.com 1.10,2013-01-17 13:50:00,
2013-01-17 07:05:00,27.0,7.0,30.55,SW,221,0.0,4.0,43,0.00,,,0.00,0,weatherlink.com 1.10,2013-01-17 14:05:00,
2013-01-17 07:20:00,26.9,7.0,30.55,SW,224,0.0,4.0,43,0.00,,,0.00,12,weatherlink.com 1.10,2013-01-17 14:20:00,
2013-01-17 07:50:00,28.4,8.0,30.55,SW,230,0.0,5.0,42,0.00,,,0.00,67,weatherlink.com 1.10,2013-01-17 14:50:00,
2013-01-17 08:05:00,30.0,8.0,30.55,SW,234,1.0,4.0,40,0.00,,,0.00,116,weatherlink.com 1.10,2013-01-17 15:05:00,
2013-01-17 08:20:00,31.3,9.0,30.56,WSW,238,1.0,2.0,39,0.00,,,0.00,169,weatherlink.com 1.10,2013-01-17 15:20:00,
2013-01-17 08:35:00,33.0,9.0,30.56,WSW,251,1.0,7.0,37,0.00,,,0.00,227,weatherlink.com 1.10,2013-01-17 15:35:00,
2013-01-17 08:50:00,34.8,10.0,30.57,WSW,253,1.0,3.0,35,0.00,,,0.00,279,weatherlink.com 1.10,2013-01-17 15:50:00,
2013-01-17 09:05:00,37.0,11.0,30.58,West,259,0.0,3.0,34,0.00,,,0.00,320,weatherlink.com 1.10,2013-01-17 16:05:00,
2013-01-17 09:21:00,39.1,11.0,30.58,West,264,1.0,2.0,32,0.00,,,0.00,360,weatherlink.com 1.10,2013-01-17 16:21:00,
2013-01-17 09:36:00,40.1,12.0,30.58,WNW,284,6.0,8.0,31,0.00,,,0.00,397,weatherlink.com 1.10,2013-01-17 16:36:00,
2013-01-17 09:51:00,41.8,12.0,30.58,WNW,284,0.0,5.0,30,0.00,,,0.00,434,weatherlink.com 1.10,2013-01-17 16:51:00,
2013-01-17 10:06:00,42.7,12.0,30.58,WNW,286,1.0,3.0,29,0.00,,,0.00,468,weatherlink.com 1.10,2013-01-17 17:06:00,
2013-01-17 10:21:00,44.4,12.0,30.58,WNW,286,1.0,2.0,27,0.00,,,0.00,497,weatherlink.com 1.10,2013-01-17 17:21:00,
2013-01-17 10:36:00,46.0,14.0,30.57,WNW,286,0.0,2.0,27,0.00,,,0.00,524,weatherlink.com 1.10,2013-01-17 17:36:00,
2013-01-17 10:51:00,47.6,14.0,30.57,WNW,286,0.0,3.0,26,0.00,,,0.00,547,weatherlink.com 1.10,2013-01-17 17:51:00,
2013-01-17 11:06:00,48.5,15.0,30.55,WNW,287,1.0,2.0,26,0.00,,,0.00,568,weatherlink.com 1.10,2013-01-17 18:06:00,
2013-01-17 11:21:00,49.0,15.0,30.54,WNW,287,0.0,3.0,26,0.00,,,0.00,585,weatherlink.com 1.10,2013-01-17 18:21:00,
2013-01-17 11:36:00,50.0,16.0,30.53,WNW,287,1.0,3.0,26,0.00,,,0.00,596,weatherlink.com 1.10,2013-01-17 18:36:00,
2013-01-17 11:51:00,51.3,18.0,30.52,West,277,2.0,7.0,27,0.00,,,0.00,605,weatherlink.com 1.10,2013-01-17 18:51:00,
2013-01-17 12:06:00,51.7,19.0,30.51,SW,219,1.0,5.0,27,0.00,,,0.00,608,weatherlink.com 1.10,2013-01-17 19:06:00,
2013-01-17 12:21:00,52.5,18.0,30.50,East,96,5.0,7.0,26,0.00,,,0.00,606,weatherlink.com 1.10,2013-01-17 19:21:00,
2013-01-17 12:36:00,53.2,21.0,30.48,SE,140,2.0,11.0,28,0.00,,,0.00,606,weatherlink.com 1.10,2013-01-17 19:36:00,
2013-01-17 12:51:00,53.7,21.0,30.47,NE,46,6.0,10.0,28,0.00,,,0.00,601,weatherlink.com 1.10,2013-01-17 19:51:00,
2013-01-17 13:06:00,54.3,22.0,30.46,East,98,2.0,7.0,29,0.00,,,0.00,589,weatherlink.com 1.10,2013-01-17 20:06:00,
2013-01-17 13:22:00,55.2,22.0,30.45,SE,142,2.0,10.0,28,0.00,,,0.00,575,weatherlink.com 1.10,2013-01-17 20:22:00,
2013-01-17 13:37:00,55.6,23.0,30.43,East,84,5.0,10.0,28,0.00,,,0.00,557,weatherlink.com 1.10,2013-01-17 20:37:00,
2013-01-17 13:52:00,56.2,23.0,30.43,East,87,6.0,10.0,28,0.00,,,0.00,534,weatherlink.com 1.10,2013-01-17 20:52:00,
2013-01-17 14:07:00,56.2,23.0,30.42,East,90,6.0,13.0,28,0.00,,,0.00,510,weatherlink.com 1.10,2013-01-17 21:07:00,
2013-01-17 14:22:00,56.6,24.0,30.41,SSE,156,6.0,8.0,28,0.00,,,0.00,483,weatherlink.com 1.10,2013-01-17 21:22:00,
2013-01-17 14:37:00,57.2,24.0,30.41,ESE,111,2.0,7.0,28,0.00,,,0.00,450,weatherlink.com 1.10,2013-01-17 21:37:00,
2013-01-17 14:52:00,57.4,24.0,30.40,ESE,117,2.0,9.0,28,0.00,,,0.00,411,weatherlink.com 1.10,2013-01-17 21:52:00,
2013-01-17 15:07:00,57.5,24.0,30.39,ESE,119,2.0,8.0,27,0.00,,,0.00,165,weatherlink.com 1.10,2013-01-17 22:07:00,
2013-01-17 15:22:00,57.4,24.0,30.39,SE,137,1.0,10.0,28,0.00,,,0.00,311,weatherlink.com 1.10,2013-01-17 22:22:00,
2013-01-17 15:37:00,57.7,25.0,30.39,ESE,111,9.0,9.0,28,0.00,,,0.00,299,weatherlink.com 1.10,2013-01-17 22:37:00,
2013-01-17 15:52:00,57.5,24.0,30.39,SSE,149,6.0,11.0,28,0.00,,,0.00,250,weatherlink.com 1.10,2013-01-17 22:52:00,
2013-01-17 16:07:00,57.8,25.0,30.39,ESE,107,2.0,7.0,28,0.00,,,0.00,193,weatherlink.com 1.10,2013-01-17 23:07:00,
2013-01-17 16:22:00,57.5,25.0,30.40,ESE,111,1.0,9.0,29,0.00,,,0.00,139,weatherlink.com 1.10,2013-01-17 23:22:00,
2013-01-17 16:37:00,57.2,25.0,30.40,SE,134,1.0,6.0,29,0.00,,,0.00,86,weatherlink.com 1.10,2013-01-17 23:37:00,
2013-01-17 16:52:00,56.6,24.0,30.40,SE,132,3.0,11.0,29,0.00,,,0.00,44,weatherlink.com 1.10,2013-01-17 23:52:00,
2013-01-17 17:07:00,55.8,25.0,30.41,ESE,115,1.0,8.0,30,0.00,,,0.00,12,weatherlink.com 1.10,2013-01-18 00:07:00,
2013-01-17 17:22:00,55.1,25.0,30.41,SSE,148,0.0,5.0,31,0.00,,,0.00,5,weatherlink.com 1.10,2013-01-18 00:22:00,
2013-01-17 17:37:00,54.3,25.0,30.41,SE,146,1.0,3.0,32,0.00,,,0.00,0,weatherlink.com 1.10,2013-01-18 00:37:00,
2013-01-17 17:53:00,53.5,24.0,30.42,SE,146,0.0,3.0,32,0.00,,,0.00,0,weatherlink.com 1.10,2013-01-18 00:53:00,
2013-01-17 18:07:00,52.6,24.0,30.42,SE,146,0.0,2.0,33,0.00,,,0.00,0,weatherlink.com 1.10,2013-01-18 01:07:00,
2013-01-17 18:22:00,51.8,24.0,30.43,SE,146,0.0,1.0,34,0.00,,,0.00,0,weatherlink.com 1.10,2013-01-18 01:22:00,
2013-01-17 18:37:00,51.2,24.0,30.43,SE,146,1.0,2.0,34,0.00,,,0.00,0,weatherlink.com 1.10,2013-01-18 01:37:00,
2013-01-17 18:52:00,51.1,23.0,30.43,SE,139,1.0,7.0,34,0.00,,,0.00,0,weatherlink.com 1.10,2013-01-18 01:52:00,
2013-01-17 19:07:00,50.5,24.0,30.43,SE,135,0.0,2.0,35,0.00,,,0.00,0,weatherlink.com 1.10,2013-01-18 02:07:00,
2013-01-17 19:22:00,47.9,23.0,30.43,SE,132,0.0,2.0,37,0.00,,,0.00,0,weatherlink.com 1.10,2013-01-18 02:22:00,
2013-01-17 19:37:00,47.2,22.0,30.43,SE,125,0.0,6.0,37,0.00,,,0.00,0,weatherlink.com 1.10,2013-01-18 02:37:00,
2013-01-17 19:52:00,46.6,22.0,30.43,ESE,118,0.0,7.0,38,0.00,,,0.00,0,weatherlink.com 1.10,2013-01-18 02:52:00,
2013-01-17 20:07:00,46.3,22.0,30.42,ESE,114,1.0,5.0,39,0.00,,,0.00,0,weatherlink.com 1.10,2013-01-18 03:07:00,
2013-01-17 20:22:00,46.5,23.0,30.43,East,101,0.0,9.0,39,0.00,,,0.00,0,weatherlink.com 1.10,2013-01-18 03:22:00,
2013-01-17 20:37:00,46.3,23.0,30.42,East,92,1.0,9.0,40,0.00,,,0.00,0,weatherlink.com 1.10,2013-01-18 03:37:00,
2013-01-17 20:52:00,45.6,22.0,30.42,East,90,1.0,8.0,40,0.00,,,0.00,0,weatherlink.com 1.10,2013-01-18 03:52:00,
2013-01-17 21:07:00,45.0,22.0,30.43,East,84,0.0,8.0,41,0.00,,,0.00,0,weatherlink.com 1.10,2013-01-18 04:07:00,
2013-01-17 21:22:00,44.1,23.0,30.43,East,84,0.0,6.0,43,0.00,,,0.00,0,weatherlink.com 1.10,2013-01-18 04:22:00,
2013-01-17 21:37:00,43.7,23.0,30.43,East,83,0.0,2.0,44,0.00,,,0.00,0,weatherlink.com 1.10,2013-01-18 04:37:00,
2013-01-17 21:52:00,42.9,23.0,30.43,East,84,1.0,1.0,45,0.00,,,0.00,0,weatherlink.com 1.10,2013-01-18 04:52:00,
2013-01-17 22:07:00,42.5,23.0,30.43,East,84,1.0,1.0,46,0.00,,,0.00,0,weatherlink.com 1.10,2013-01-18 05:07:00,
2013-01-17 22:22:00,42.6,23.0,30.42,East,84,0.0,1.0,46,0.00,,,0.00,0,weatherlink.com 1.10,2013-01-18 05:22:00,
2013-01-17 22:37:00,42.8,23.0,30.41,East,84,0.0,1.0,46,0.00,,,0.00,0,weatherlink.com 1.10,2013-01-18 05:37:00,
2013-01-17 22:52:00,42.5,23.0,30.41,East,83,0.0,1.0,47,0.00,,,0.00,0,weatherlink.com 1.10,2013-01-18 05:52:00,
2013-01-17 23:07:00,41.6,23.0,30.40,East,84,0.0,0.0,48,0.00,,,0.00,0,weatherlink.com 1.10,2013-01-18 06:07:00,
2013-01-17 23:22:00,41.6,24.0,30.40,East,83,1.0,5.0,49,0.00,,,0.00,0,weatherlink.com 1.10,2013-01-18 06:22:00,
2013-01-17 23:37:00,41.6,24.0,30.40,East,84,0.0,1.0,49,0.00,,,0.00,0,weatherlink.com 1.10,2013-01-18 06:37:00,
2013-01-17 23:52:00,41.6,24.0,30.40,East,84,0.0,0.0,49,0.00,,,0.00,0,weatherlink.com 1.10,2013-01-18 06:52:00,